START_TIME,STEP,MOV.,M6,t_acc.,M7,t_acc.,M19,t_acc.,H36,t_acc.
1989-08-26T15:00:27.750 ,1,0,0.,12.0,0.,12.0,0.,12.0,0.,12.0
1989-08-26T15:00:39.750 ,1,0,0.,12.0,0.,12.0,0.,12.0,0.,12.0
1989-08-26T15:00:51.750 ,0,1,0.,12.0,0.,12.0,0.,12.0,0.,12.0
1989-08-26T15:01:03.750 ,0,1,0.,12.0,0.,12.0,0.,12.0,0.,12.0
1989-08-26T15:01:15.750 ,0,0,0.,12.0,0.,12.0,0.,12.0,0.,12.0
1989-08-26T15:01:27.750 ,0,0,0.,12.0,0.,12.0,0.,12.0,0.,12.0
1989-08-26T15:01:39.750 ,0,1,0.,12.0,0.,12.0,0.,12.0,0.,12.0
1989-08-26T15:01:51.750 ,0,1,0.,12.0,0.,12.0,0.,12.0,0.,12.0
1989-08-26T15:02:03.750 ,0,0,0.,12.0,0.,12.0,0.,12.0,0.,12.0
1989-08-26T15:02:15.750 ,0,0,0.,12.0,0.,12.0,0.,12.0,0.,12.0
1989-08-26T15:02:27.750 ,1,1,0.,12.0,0.,12.0,0.,12.0,0.,12.0
1989-08-26T15:02:39.750 ,1,1,0.,12.0,0.,12.0,0.,12.0,0.,12.0
1989-08-26T15:02:51.750 ,1,0,0.,12.0,0.,12.0,0.,12.0,0.,12.0
1989-08-26T15:03:03.750 ,1,0,0.,12.0,0.,12.0,0.,12.0,0.,12.0
1989-08-26T15:03:15.750 ,2,1,0.,12.0,0.,12.0,0.,12.0,0.,12.0
1989-08-26T15:03:27.750 ,2,1,0.,12.0,0.,12.0,0.,12.0,0.,12.0
1989-08-26T15:03:39.750 ,2,0,0.,12.0,0.,12.0,0.,12.0,0.,12.0
1989-08-26T15:03:51.750 ,2,0,0.,12.0,0.,12.0,0.,12.0,0.,12.0
1989-08-26T15:04:03.750 ,3,1,0.,12.0,0.,12.0,0.,12.0,0.,12.0
1989-08-26T15:04:15.750 ,3,1,0.,12.0,0.,12.0,0.,12.0,0.,12.0
1989-08-26T15:04:27.750 ,3,0,0.,12.0,0.,12.0,0.,12.0,0.,12.0
1989-08-26T15:04:39.750 ,3,0,0.,12.0,0.,12.0,0.,12.0,0.,12.0
1989-08-26T15:04:51.750 ,4,1,0.,12.0,0.,12.0,0.,12.0,0.,12.0
1989-08-26T15:05:03.750 ,4,1,0.,12.0,0.,12.0,0.,12.0,0.,12.0
1989-08-26T15:05:15.750 ,4,0,0.,12.0,0.,12.0,0.,12.0,0.,12.0
1989-08-26T15:05:27.750 ,4,0,0.,12.0,0.,12.0,0.,12.0,0.,12.0
1989-08-26T15:05:39.750 ,5,1,0.,12.0,0.,12.0,0.,12.0,0.,12.0
1989-08-26T15:05:51.750 ,5,1,0.,12.0,0.,12.0,0.,12.0,0.,12.0
1989-08-26T15:06:03.750 ,5,1,,0,,0,,0,,0
1989-08-26T15:06:15.750 ,5,1,,0,,0,,0,,0
1989-08-26T15:06:42.750 ,0,0,,0,,0,,0,,0
1989-08-26T15:06:54.750 ,0,0,0.,12.0,0.,12.0,0.,12.0,0.,12.0
1989-08-26T15:06:51.750 ,0,0,0.,12.0,0.,12.0,0.,12.0,0.,12.0
1989-08-26T15:07:03.750 ,0,0,0.,12.0,0.,12.0,0.,12.0,0.,12.0
1989-08-26T15:07:15.750 ,7,1,0.,12.0,0.,12.0,0.,12.0,0.,12.0
1989-08-26T15:07:27.750 ,7,1,0.,12.0,0.,12.0,0.,12.0,0.,12.0
1989-08-26T15:07:39.750 ,7,0,0.,12.0,0.,12.0,0.,12.0,0.,12.0
1989-08-26T15:07:51.750 ,7,0,0.,12.0,0.,12.0,0.,12.0,0.,12.0
1989-08-26T15:08:03.750 ,7,1,0.,12.0,0.,12.0,0.,12.0,0.,12.0
1989-08-26T15:08:15.750 ,7,1,0.,12.0,0.,12.0,0.,12.0,0.,12.0
1989-08-26T15:08:27.750 ,7,0,0.,12.0,0.,12.0,0.,12.0,0.,12.0
1989-08-26T15:08:39.750 ,7,0,0.,12.0,0.,12.0,0.,12.0,0.,12.0
1989-08-26T15:08:51.750 ,6,1,0.,12.0,0.,12.0,0.,12.0,0.,12.0
1989-08-26T15:09:03.750 ,6,1,0.,12.0,0.,12.0,0.,12.0,0.,12.0
1989-08-26T15:09:15.750 ,6,0,0.,12.0,0.,12.0,0.,12.0,0.,12.0
1989-08-26T15:09:27.750 ,6,0,0.,12.0,0.,12.0,0.,12.0,0.,12.0
1989-08-26T15:09:39.750 ,5,1,1.,12.0,0.,12.0,0.,12.0,0.,12.0
1989-08-26T15:09:51.750 ,5,1,0.,12.0,0.,12.0,0.,12.0,0.,12.0
1989-08-26T15:10:03.750 ,5,0,0.,12.0,0.,12.0,0.,12.0,0.,12.0
1989-08-26T15:10:15.750 ,5,0,0.,12.0,0.,12.0,0.,12.0,0.,12.0
1989-08-26T15:10:27.750 ,4,1,0.,12.0,0.,12.0,0.,12.0,0.,12.0
1989-08-26T15:10:39.750 ,4,1,0.,12.0,0.,12.0,0.,12.0,0.,12.0
1989-08-26T15:10:51.750 ,4,0,0.,12.0,0.,12.0,0.,12.0,0.,12.0
1989-08-26T15:11:03.750 ,4,0,0.,12.0,0.,12.0,0.,12.0,0.,12.0
1989-08-26T15:11:15.750 ,3,1,0.,12.0,0.,12.0,0.,12.0,0.,12.0
1989-08-26T15:11:27.750 ,3,1,0.,12.0,0.,12.0,0.,12.0,0.,12.0
1989-08-26T15:11:39.750 ,3,0,0.,12.0,0.,12.0,0.,12.0,0.,12.0
1989-08-26T15:11:51.750 ,3,0,0.,12.0,0.,12.0,0.,12.0,0.,12.0
1989-08-26T15:12:03.750 ,2,1,0.,12.0,0.,12.0,0.,12.0,0.,12.0
1989-08-26T15:12:15.750 ,2,1,0.,12.0,0.,12.0,0.,12.0,0.,12.0
1989-08-26T15:12:27.750 ,2,0,0.,12.0,0.,12.0,0.,12.0,0.,12.0
1989-08-26T15:12:39.750 ,2,0,0.,12.0,0.,12.0,0.,12.0,0.,12.0
1989-08-26T15:12:51.750 ,1,1,0.,12.0,0.,12.0,0.,12.0,0.,12.0
1989-08-26T15:13:03.750 ,1,1,0.,12.0,0.,12.0,0.,12.0,0.,12.0
1989-08-26T15:13:15.750 ,1,0,0.,12.0,0.,12.0,0.,12.0,0.,12.0
1989-08-26T15:13:27.750 ,1,0,0.,12.0,0.,12.0,0.,12.0,0.,12.0
1989-08-26T15:13:39.750 ,0,1,0.,12.0,0.,12.0,0.,12.0,0.,12.0
1989-08-26T15:13:51.750 ,0,1,0.,12.0,0.,12.0,0.,12.0,0.,12.0
1989-08-26T15:14:03.750 ,0,0,0.,12.0,0.,12.0,0.,12.0,0.,12.0
1989-08-26T15:14:15.750 ,0,0,0.,12.0,0.,12.0,0.,12.0,0.,12.0
1989-08-26T15:14:27.750 ,0,1,0.,12.0,0.,12.0,0.,12.0,0.,12.0
1989-08-26T15:14:39.750 ,0,1,0.,12.0,0.,12.0,0.,12.0,0.,12.0
1989-08-26T15:14:51.750 ,0,0,0.,12.0,0.,12.0,0.,12.0,0.,12.0
1989-08-26T15:15:03.750 ,0,0,0.,12.0,0.,12.0,0.,12.0,0.,12.0
1989-08-26T15:15:15.750 ,1,1,0.,12.0,0.,12.0,0.,12.0,0.,12.0
1989-08-26T15:15:27.750 ,1,1,0.,12.0,0.,12.0,0.,12.0,0.,12.0
1989-08-26T15:15:39.750 ,1,0,0.,12.0,0.,12.0,0.,12.0,0.,12.0
1989-08-26T15:15:51.750 ,1,0,0.,12.0,0.,12.0,0.,12.0,0.,12.0
1989-08-26T15:16:03.750 ,2,1,0.,12.0,0.,12.0,0.,12.0,0.,12.0
1989-08-26T15:16:15.750 ,2,1,0.,12.0,0.,12.0,0.,12.0,0.,12.0
1989-08-26T15:16:27.750 ,2,0,0.,12.0,0.,12.0,0.,12.0,0.,12.0
1989-08-26T15:16:39.750 ,2,0,0.,12.0,0.,12.0,0.,12.0,0.,12.0
1989-08-26T15:16:51.750 ,3,1,0.,12.0,0.,12.0,0.,12.0,0.,12.0
1989-08-26T15:17:03.750 ,3,1,0.,12.0,0.,12.0,0.,12.0,0.,12.0
1989-08-26T15:17:15.750 ,3,0,0.,12.0,0.,12.0,0.,12.0,0.,12.0
1989-08-26T15:17:27.750 ,3,0,0.,12.0,0.,12.0,0.,12.0,0.,12.0
1989-08-26T15:17:39.750 ,4,1,0.,12.0,0.,12.0,0.,12.0,0.,12.0
1989-08-26T15:17:51.750 ,4,1,0.,12.0,0.,12.0,0.,12.0,0.,12.0
1989-08-26T15:18:03.750 ,4,0,0.,12.0,0.,12.0,0.,12.0,0.,12.0
1989-08-26T15:18:15.750 ,4,0,0.,12.0,0.,12.0,0.,12.0,0.,12.0
1989-08-26T15:18:27.750 ,5,1,0.,12.0,0.,12.0,0.,12.0,0.,12.0
1989-08-26T15:18:39.750 ,5,1,0.,12.0,0.,12.0,0.,12.0,0.,12.0
1989-08-26T15:18:51.750 ,5,0,0.,12.0,0.,12.0,0.,12.0,0.,12.0
1989-08-26T15:19:03.750 ,5,0,0.,12.0,0.,12.0,0.,12.0,0.,12.0
1989-08-26T15:19:15.750 ,6,1,0.,12.0,0.,12.0,0.,12.0,0.,12.0
1989-08-26T15:19:27.750 ,6,1,0.,12.0,0.,12.0,0.,12.0,0.,12.0
1989-08-26T15:19:39.750 ,6,0,0.,12.0,0.,12.0,0.,12.0,0.,12.0
1989-08-26T15:19:51.750 ,6,0,0.,12.0,0.,12.0,0.,12.0,0.,12.0
1989-08-26T15:20:03.750 ,7,1,0.,12.0,0.,12.0,0.,12.0,0.,12.0
1989-08-26T15:20:15.750 ,7,1,0.,12.0,0.,12.0,0.,12.0,0.,12.0
1989-08-26T15:20:27.750 ,7,0,0.,12.0,0.,12.0,0.,12.0,0.,12.0
1989-08-26T15:20:39.750 ,7,0,0.,12.0,0.,12.0,0.,12.0,0.,12.0
1989-08-26T15:20:51.750 ,7,1,0.,12.0,0.,12.0,0.,12.0,0.,12.0
1989-08-26T15:21:03.750 ,7,1,0.,12.0,0.,12.0,0.,12.0,0.,12.0
1989-08-26T15:21:15.750 ,7,0,0.,12.0,0.,12.0,0.,12.0,0.,12.0
1989-08-26T15:21:27.750 ,7,0,0.,12.0,0.,12.0,0.,12.0,0.,12.0
1989-08-26T15:21:39.750 ,6,1,0.,12.0,0.,12.0,0.,12.0,0.,12.0
1989-08-26T15:21:51.750 ,6,1,0.,12.0,0.,12.0,0.,12.0,0.,12.0
1989-08-26T15:22:03.750 ,6,0,0.,12.0,0.,12.0,0.,12.0,0.,12.0
1989-08-26T15:22:15.750 ,6,0,0.,12.0,0.,12.0,0.,12.0,0.,12.0
1989-08-26T15:22:27.750 ,5,1,0.,12.0,0.,12.0,0.,12.0,0.,12.0
1989-08-26T15:22:39.750 ,5,1,0.,12.0,1.,12.0,0.,12.0,0.,12.0
1989-08-26T15:22:51.750 ,5,0,0.,12.0,0.,12.0,0.,12.0,0.,12.0
1989-08-26T15:23:03.750 ,5,0,0.,12.0,0.,12.0,0.,12.0,0.,12.0
1989-08-26T15:23:15.750 ,4,1,0.,12.0,0.,12.0,0.,12.0,0.,12.0
1989-08-26T15:23:27.750 ,4,1,0.,12.0,0.,12.0,0.,12.0,0.,12.0
1989-08-26T15:23:39.750 ,4,0,0.,12.0,0.,12.0,0.,12.0,0.,12.0
1989-08-26T15:23:51.750 ,4,0,0.,12.0,0.,12.0,0.,12.0,0.,12.0
1989-08-26T15:24:03.750 ,3,1,0.,12.0,0.,12.0,0.,12.0,0.,12.0
1989-08-26T15:24:15.750 ,3,1,0.,12.0,0.,12.0,0.,12.0,0.,12.0
1989-08-26T15:24:27.750 ,3,0,0.,12.0,0.,12.0,0.,12.0,0.,12.0
1989-08-26T15:24:39.750 ,3,0,0.,12.0,0.,12.0,0.,12.0,0.,12.0
1989-08-26T15:24:51.750 ,2,1,0.,12.0,0.,12.0,0.,12.0,0.,12.0
1989-08-26T15:25:03.750 ,2,1,0.,12.0,0.,12.0,0.,12.0,0.,12.0
1989-08-26T15:25:15.750 ,2,0,0.,12.0,0.,12.0,0.,12.0,0.,12.0
1989-08-26T15:25:27.750 ,2,0,0.,12.0,0.,12.0,0.,12.0,0.,12.0
1989-08-26T15:25:39.750 ,1,1,0.,12.0,0.,12.0,0.,12.0,0.,12.0
1989-08-26T15:25:51.750 ,1,1,0.,12.0,0.,12.0,0.,12.0,0.,12.0
1989-08-26T15:26:03.750 ,1,0,0.,12.0,0.,12.0,0.,12.0,0.,12.0
1989-08-26T15:26:15.750 ,1,0,0.,12.0,0.,12.0,0.,12.0,0.,12.0
1989-08-26T15:26:27.750 ,0,1,0.,12.0,0.,12.0,0.,12.0,0.,12.0
1989-08-26T15:26:39.750 ,0,1,0.,12.0,0.,12.0,0.,12.0,0.,12.0
1989-08-26T15:26:51.750 ,0,0,0.,12.0,0.,12.0,0.,12.0,0.,12.0
1989-08-26T15:27:03.750 ,0,0,0.,12.0,0.,12.0,0.,12.0,0.,12.0
1989-08-26T15:27:15.750 ,0,1,0.,12.0,0.,12.0,0.,12.0,0.,12.0
1989-08-26T15:27:27.750 ,0,1,0.,12.0,0.,12.0,0.,12.0,0.,12.0
1989-08-26T15:27:39.750 ,0,0,0.,12.0,0.,12.0,0.,12.0,0.,12.0
1989-08-26T15:27:51.750 ,0,0,0.,12.0,0.,12.0,0.,12.0,0.,12.0
1989-08-26T15:28:03.750 ,1,1,0.,12.0,0.,12.0,0.,12.0,0.,12.0
1989-08-26T15:28:15.750 ,1,1,0.,12.0,0.,12.0,0.,12.0,0.,12.0
1989-08-26T15:28:27.750 ,1,0,0.,12.0,0.,12.0,0.,12.0,0.,12.0
1989-08-26T15:28:39.750 ,1,0,0.,12.0,0.,12.0,0.,12.0,0.,12.0
1989-08-26T15:28:51.750 ,2,1,0.,12.0,0.,12.0,0.,12.0,0.,12.0
1989-08-26T15:29:03.750 ,2,1,0.,12.0,0.,12.0,0.,12.0,0.,12.0
1989-08-26T15:29:15.750 ,2,0,0.,12.0,0.,12.0,0.,12.0,0.,12.0
1989-08-26T15:29:27.750 ,2,0,0.,12.0,0.,12.0,0.,12.0,0.,12.0
1989-08-26T15:29:39.750 ,3,1,0.,12.0,0.,12.0,0.,12.0,0.,12.0
1989-08-26T15:29:51.750 ,3,1,0.,12.0,0.,12.0,0.,12.0,0.,12.0
1989-08-26T15:30:03.750 ,3,0,0.,12.0,0.,12.0,0.,12.0,0.,12.0
1989-08-26T15:30:15.750 ,3,0,0.,12.0,0.,12.0,0.,12.0,0.,12.0
1989-08-26T15:30:27.750 ,4,1,0.,12.0,0.,12.0,0.,12.0,0.,12.0
1989-08-26T15:30:39.750 ,4,1,0.,12.0,0.,12.0,0.,12.0,0.,12.0
1989-08-26T15:30:51.750 ,4,0,0.,12.0,0.,12.0,0.,12.0,0.,12.0
1989-08-26T15:31:03.750 ,4,0,0.,12.0,0.,12.0,0.,12.0,0.,12.0
1989-08-26T15:31:15.750 ,5,1,0.,12.0,0.,12.0,0.,12.0,0.,12.0
1989-08-26T15:31:27.750 ,5,1,0.,12.0,0.,12.0,0.,12.0,0.,12.0
1989-08-26T15:31:39.750 ,5,0,0.,12.0,0.,12.0,0.,12.0,0.,12.0
1989-08-26T15:31:51.750 ,5,0,0.,12.0,0.,12.0,0.,12.0,0.,12.0
1989-08-26T15:32:03.750 ,6,1,0.,12.0,0.,12.0,0.,12.0,0.,12.0
1989-08-26T15:32:15.750 ,6,1,0.,12.0,0.,12.0,0.,12.0,0.,12.0
1989-08-26T15:32:27.750 ,6,0,0.,12.0,0.,12.0,0.,12.0,0.,12.0
1989-08-26T15:32:39.750 ,6,0,0.,12.0,0.,12.0,0.,12.0,0.,12.0
1989-08-26T15:32:51.750 ,7,1,0.,12.0,0.,12.0,0.,12.0,0.,12.0
1989-08-26T15:33:03.750 ,7,1,0.,12.0,0.,12.0,0.,12.0,0.,12.0
1989-08-26T15:33:15.750 ,7,0,0.,12.0,0.,12.0,0.,12.0,0.,12.0
1989-08-26T15:33:27.750 ,7,0,0.,12.0,0.,12.0,0.,12.0,0.,12.0
1989-08-26T15:33:39.750 ,7,1,0.,12.0,0.,12.0,0.,12.0,0.,12.0
1989-08-26T15:33:51.750 ,7,1,0.,12.0,0.,12.0,0.,12.0,0.,12.0
1989-08-26T15:34:03.750 ,7,0,0.,12.0,0.,12.0,0.,12.0,0.,12.0
1989-08-26T15:34:15.750 ,7,0,0.,12.0,0.,12.0,0.,12.0,0.,12.0
1989-08-26T15:34:27.750 ,6,1,0.,12.0,0.,12.0,0.,12.0,0.,12.0
1989-08-26T15:34:39.750 ,6,1,0.,12.0,0.,12.0,0.,12.0,0.,12.0
1989-08-26T15:34:51.750 ,6,0,0.,12.0,0.,12.0,0.,12.0,0.,12.0
1989-08-26T15:35:03.750 ,6,0,0.,12.0,0.,12.0,0.,12.0,0.,12.0
1989-08-26T15:35:15.750 ,5,1,0.,12.0,0.,12.0,0.,12.0,0.,12.0
1989-08-26T15:35:27.750 ,5,1,0.,12.0,0.,12.0,0.,12.0,0.,12.0
1989-08-26T15:35:39.750 ,5,0,0.,12.0,0.,12.0,0.,12.0,0.,12.0
1989-08-26T15:35:51.750 ,5,0,0.,12.0,0.,12.0,0.,12.0,0.,12.0
1989-08-26T15:36:03.750 ,4,1,0.,12.0,0.,12.0,0.,12.0,0.,12.0
1989-08-26T15:36:15.750 ,4,1,0.,12.0,0.,12.0,0.,12.0,0.,12.0
1989-08-26T15:36:27.750 ,4,0,0.,12.0,0.,12.0,0.,12.0,0.,12.0
1989-08-26T15:36:39.750 ,4,0,0.,12.0,0.,12.0,0.,12.0,0.,12.0
1989-08-26T15:36:51.750 ,3,1,0.,12.0,0.,12.0,0.,12.0,0.,12.0
1989-08-26T15:37:03.750 ,3,1,0.,12.0,0.,12.0,0.,12.0,0.,12.0
1989-08-26T15:37:15.750 ,3,0,0.,12.0,0.,12.0,0.,12.0,0.,12.0
1989-08-26T15:37:27.750 ,3,0,0.,12.0,0.,12.0,0.,12.0,0.,12.0
1989-08-26T15:37:39.750 ,2,1,0.,12.0,0.,12.0,0.,12.0,0.,12.0
1989-08-26T15:37:51.750 ,2,1,0.,12.0,0.,12.0,0.,12.0,0.,12.0
1989-08-26T15:38:03.750 ,2,0,0.,12.0,0.,12.0,0.,12.0,0.,12.0
1989-08-26T15:38:15.750 ,2,0,0.,12.0,0.,12.0,0.,12.0,0.,12.0
1989-08-26T15:38:27.750 ,1,1,0.,12.0,0.,12.0,0.,12.0,0.,12.0
1989-08-26T15:38:39.750 ,1,1,0.,12.0,0.,12.0,0.,12.0,0.,12.0
1989-08-26T15:38:51.750 ,1,0,0.,12.0,0.,12.0,0.,12.0,0.,12.0
1989-08-26T15:39:03.750 ,1,0,0.,12.0,0.,12.0,0.,12.0,0.,12.0
1989-08-26T15:39:15.750 ,0,1,0.,12.0,0.,12.0,0.,12.0,0.,12.0
1989-08-26T15:39:27.750 ,0,1,0.,12.0,0.,12.0,0.,12.0,0.,12.0
1989-08-26T15:39:39.750 ,0,0,0.,12.0,0.,12.0,0.,12.0,0.,12.0
1989-08-26T15:39:51.750 ,0,0,0.,12.0,0.,12.0,0.,12.0,0.,12.0
1989-08-26T15:40:03.750 ,0,1,0.,12.0,0.,12.0,0.,12.0,0.,12.0
1989-08-26T15:40:15.750 ,0,1,0.,12.0,0.,12.0,0.,12.0,0.,12.0
1989-08-26T15:40:27.750 ,0,0,0.,12.0,0.,12.0,0.,12.0,0.,12.0
1989-08-26T15:40:39.750 ,0,0,0.,12.0,0.,12.0,0.,12.0,0.,12.0
1989-08-26T15:40:51.750 ,1,1,0.,12.0,0.,12.0,0.,12.0,0.,12.0
1989-08-26T15:41:03.750 ,1,1,0.,12.0,0.,12.0,0.,12.0,0.,12.0
1989-08-26T15:41:15.750 ,1,0,0.,12.0,0.,12.0,0.,12.0,0.,12.0
1989-08-26T15:41:27.750 ,1,0,0.,12.0,0.,12.0,0.,12.0,0.,12.0
1989-08-26T15:41:39.750 ,2,1,0.,12.0,0.,12.0,0.,12.0,0.,12.0
1989-08-26T15:41:51.750 ,2,1,0.,12.0,0.,12.0,0.,12.0,0.,12.0
1989-08-26T15:42:03.750 ,2,0,0.,12.0,0.,12.0,0.,12.0,0.,12.0
1989-08-26T15:42:15.750 ,2,0,0.,12.0,0.,12.0,0.,12.0,0.,12.0
1989-08-26T15:42:27.750 ,3,1,0.,12.0,0.,12.0,0.,12.0,0.,12.0
1989-08-26T15:42:39.750 ,3,1,0.,12.0,0.,12.0,0.,12.0,0.,12.0
1989-08-26T15:42:51.750 ,3,0,0.,12.0,0.,12.0,0.,12.0,0.,12.0
1989-08-26T15:43:03.750 ,3,0,0.,12.0,0.,12.0,0.,12.0,0.,12.0
1989-08-26T15:43:15.750 ,4,1,0.,12.0,0.,12.0,0.,12.0,0.,12.0
1989-08-26T15:43:27.750 ,4,1,0.,12.0,0.,12.0,0.,12.0,0.,12.0
1989-08-26T15:43:39.750 ,4,0,0.,12.0,0.,12.0,0.,12.0,0.,12.0
1989-08-26T15:43:51.750 ,4,0,0.,12.0,0.,12.0,0.,12.0,0.,12.0
1989-08-26T15:44:03.750 ,5,1,0.,12.0,0.,12.0,0.,12.0,0.,12.0
1989-08-26T15:44:15.750 ,5,1,0.,12.0,0.,12.0,0.,12.0,0.,12.0
1989-08-26T15:44:27.750 ,5,0,0.,12.0,0.,12.0,0.,12.0,0.,12.0
1989-08-26T15:44:39.750 ,5,0,0.,12.0,0.,12.0,0.,12.0,0.,12.0
1989-08-26T15:44:51.750 ,6,1,0.,12.0,0.,12.0,0.,12.0,0.,12.0
1989-08-26T15:45:03.750 ,6,1,0.,12.0,0.,12.0,0.,12.0,0.,12.0
1989-08-26T15:45:15.750 ,6,0,0.,12.0,0.,12.0,0.,12.0,0.,12.0
1989-08-26T15:45:27.750 ,6,0,0.,12.0,0.,12.0,0.,12.0,0.,12.0
1989-08-26T15:45:39.750 ,7,1,0.,12.0,0.,12.0,0.,12.0,0.,12.0
1989-08-26T15:45:51.750 ,7,1,0.,12.0,0.,12.0,0.,12.0,0.,12.0
1989-08-26T15:46:03.750 ,7,0,0.,12.0,0.,12.0,0.,12.0,0.,12.0
1989-08-26T15:46:15.750 ,7,0,0.,12.0,0.,12.0,0.,12.0,0.,12.0
1989-08-26T15:46:27.750 ,7,1,0.,12.0,0.,12.0,0.,12.0,0.,12.0
1989-08-26T15:46:39.750 ,7,1,0.,12.0,0.,12.0,0.,12.0,0.,12.0
1989-08-26T15:46:51.750 ,7,0,0.,12.0,0.,12.0,0.,12.0,0.,12.0
1989-08-26T15:47:03.750 ,7,0,0.,12.0,0.,12.0,0.,12.0,0.,12.0
1989-08-26T15:47:15.750 ,6,1,0.,12.0,0.,12.0,0.,12.0,0.,12.0
1989-08-26T15:47:27.750 ,6,1,0.,12.0,0.,12.0,0.,12.0,0.,12.0
1989-08-26T15:47:39.750 ,6,0,0.,12.0,0.,12.0,0.,12.0,0.,12.0
1989-08-26T15:47:51.750 ,6,0,0.,12.0,0.,12.0,0.,12.0,0.,12.0
1989-08-26T15:48:03.750 ,5,1,0.,12.0,0.,12.0,0.,12.0,0.,12.0
1989-08-26T15:48:15.750 ,5,1,0.,12.0,0.,12.0,0.,12.0,0.,12.0
1989-08-26T15:48:27.750 ,5,0,0.,12.0,0.,12.0,0.,12.0,0.,12.0
1989-08-26T15:48:39.750 ,5,0,0.,12.0,0.,12.0,0.,12.0,0.,12.0
1989-08-26T15:48:51.740 ,4,1,0.,12.0,0.,12.0,0.,12.0,0.,12.0
1989-08-26T15:49:03.740 ,4,1,0.,12.0,0.,12.0,0.,12.0,0.,12.0
1989-08-26T15:49:15.740 ,4,0,0.,12.0,0.,12.0,0.,12.0,0.,12.0
1989-08-26T15:49:27.740 ,4,0,0.,12.0,0.,12.0,0.,12.0,0.,12.0
1989-08-26T15:49:39.740 ,3,1,0.,12.0,0.,12.0,0.,12.0,0.,12.0
1989-08-26T15:49:51.740 ,3,1,0.,12.0,0.,12.0,0.,12.0,0.,12.0
1989-08-26T15:50:03.740 ,3,0,0.,12.0,0.,12.0,0.,12.0,0.,12.0
1989-08-26T15:50:15.740 ,3,0,0.,12.0,0.,12.0,0.,12.0,0.,12.0
1989-08-26T15:50:27.740 ,2,1,0.,12.0,0.,12.0,0.,12.0,0.,12.0
1989-08-26T15:50:39.740 ,2,1,0.,12.0,0.,12.0,0.,12.0,0.,12.0
1989-08-26T15:50:51.740 ,2,0,0.,12.0,0.,12.0,0.,12.0,0.,12.0
1989-08-26T15:51:03.740 ,2,0,0.,12.0,0.,12.0,0.,12.0,0.,12.0
1989-08-26T15:51:15.740 ,1,1,0.,12.0,0.,12.0,0.,12.0,0.,12.0
1989-08-26T15:51:27.740 ,1,1,0.,12.0,0.,12.0,0.,12.0,0.,12.0
1989-08-26T15:51:39.740 ,1,0,0.,12.0,0.,12.0,0.,12.0,0.,12.0
1989-08-26T15:51:51.740 ,1,0,0.,12.0,0.,12.0,0.,12.0,0.,12.0
1989-08-26T15:52:03.740 ,0,1,0.,12.0,0.,12.0,0.,12.0,0.,12.0
1989-08-26T15:52:15.740 ,0,1,0.,12.0,0.,12.0,0.,12.0,0.,12.0
1989-08-26T15:52:27.740 ,0,0,0.,12.0,0.,12.0,0.,12.0,0.,12.0
1989-08-26T15:52:39.740 ,0,0,0.,12.0,0.,12.0,0.,12.0,0.,12.0
1989-08-26T15:52:51.740 ,0,1,0.,12.0,0.,12.0,0.,12.0,0.,12.0
1989-08-26T15:53:03.740 ,0,1,0.,12.0,0.,12.0,0.,12.0,0.,12.0
1989-08-26T15:53:15.740 ,0,0,0.,12.0,0.,12.0,0.,12.0,0.,12.0
1989-08-26T15:53:27.740 ,0,0,0.,12.0,0.,12.0,0.,12.0,0.,12.0
1989-08-26T15:53:39.740 ,1,1,0.,12.0,0.,12.0,0.,12.0,0.,12.0
1989-08-26T15:53:51.740 ,1,1,0.,12.0,0.,12.0,0.,12.0,0.,12.0
1989-08-26T15:54:03.740 ,1,0,0.,12.0,0.,12.0,0.,12.0,0.,12.0
1989-08-26T15:54:15.740 ,1,0,0.,12.0,0.,12.0,0.,12.0,0.,12.0
1989-08-26T15:54:27.740 ,2,1,0.,12.0,0.,12.0,0.,12.0,0.,12.0
1989-08-26T15:54:39.740 ,2,1,0.,12.0,0.,12.0,0.,12.0,0.,12.0
1989-08-26T15:54:51.740 ,2,0,0.,12.0,0.,12.0,0.,12.0,0.,12.0
1989-08-26T15:55:03.740 ,2,0,0.,12.0,0.,12.0,0.,12.0,0.,12.0
1989-08-26T15:55:15.740 ,3,1,0.,12.0,0.,12.0,0.,12.0,0.,12.0
1989-08-26T15:55:27.740 ,3,1,0.,12.0,0.,12.0,0.,12.0,0.,12.0
1989-08-26T15:55:39.740 ,3,0,0.,12.0,0.,12.0,0.,12.0,0.,12.0
1989-08-26T15:55:51.740 ,3,0,0.,12.0,0.,12.0,0.,12.0,0.,12.0
1989-08-26T15:56:03.740 ,4,1,0.,12.0,0.,12.0,0.,12.0,0.,12.0
1989-08-26T15:56:15.740 ,4,1,0.,12.0,0.,12.0,0.,12.0,0.,12.0
1989-08-26T15:56:27.740 ,4,0,0.,12.0,0.,12.0,0.,12.0,0.,12.0
1989-08-26T15:56:39.740 ,4,0,0.,12.0,0.,12.0,0.,12.0,0.,12.0
1989-08-26T15:56:51.740 ,5,1,0.,12.0,0.,12.0,0.,12.0,0.,12.0
1989-08-26T15:57:03.740 ,5,1,0.,12.0,0.,12.0,0.,12.0,0.,12.0
1989-08-26T15:57:15.740 ,5,0,0.,12.0,0.,12.0,0.,12.0,0.,12.0
1989-08-26T15:57:27.740 ,5,0,0.,12.0,0.,12.0,0.,12.0,0.,12.0
1989-08-26T15:57:39.740 ,6,1,0.,12.0,0.,12.0,0.,12.0,0.,12.0
1989-08-26T15:57:51.740 ,6,1,0.,12.0,0.,12.0,0.,12.0,0.,12.0
1989-08-26T15:58:03.740 ,6,0,0.,12.0,0.,12.0,0.,12.0,0.,12.0
1989-08-26T15:58:15.740 ,6,0,0.,12.0,0.,12.0,0.,12.0,0.,12.0
1989-08-26T15:58:27.740 ,7,1,0.,12.0,0.,12.0,0.,12.0,0.,12.0
1989-08-26T15:58:39.740 ,7,1,0.,12.0,0.,12.0,0.,12.0,0.,12.0
1989-08-26T15:58:51.740 ,7,0,0.,12.0,0.,12.0,0.,12.0,0.,12.0
1989-08-26T15:59:03.740 ,7,0,0.,12.0,0.,12.0,0.,12.0,0.,12.0
1989-08-26T15:59:15.740 ,7,1,0.,12.0,0.,12.0,0.,12.0,0.,12.0
1989-08-26T15:59:27.740 ,7,1,0.,12.0,0.,12.0,0.,12.0,0.,12.0
1989-08-26T15:59:39.740 ,7,0,0.,12.0,0.,12.0,0.,12.0,0.,12.0
1989-08-26T15:59:51.740 ,7,0,0.,12.0,0.,12.0,0.,12.0,0.,12.0
1989-08-26T16:00:03.740 ,6,1,0.,12.0,0.,12.0,0.,12.0,0.,12.0
1989-08-26T16:00:15.740 ,6,1,0.,12.0,0.,12.0,0.,12.0,0.,12.0
1989-08-26T16:00:27.740 ,6,0,0.,12.0,0.,12.0,0.,12.0,0.,12.0
1989-08-26T16:00:39.740 ,6,0,0.,12.0,0.,12.0,0.,12.0,0.,12.0
1989-08-26T16:00:51.740 ,5,1,0.,12.0,0.,12.0,0.,12.0,0.,12.0
1989-08-26T16:01:03.740 ,5,1,0.,12.0,0.,12.0,0.,12.0,0.,12.0
1989-08-26T16:01:15.740 ,5,0,0.,12.0,0.,12.0,0.,12.0,0.,12.0
1989-08-26T16:01:27.740 ,5,0,0.,12.0,0.,12.0,0.,12.0,0.,12.0
1989-08-26T16:01:39.740 ,4,1,0.,12.0,0.,12.0,0.,12.0,0.,12.0
1989-08-26T16:01:51.740 ,4,1,0.,12.0,0.,12.0,0.,12.0,0.,12.0
1989-08-26T16:02:03.740 ,4,0,0.,12.0,0.,12.0,0.,12.0,0.,12.0
1989-08-26T16:02:15.740 ,4,0,0.,12.0,0.,12.0,0.,12.0,0.,12.0
1989-08-26T16:02:27.740 ,3,1,0.,12.0,0.,12.0,0.,12.0,0.,12.0
1989-08-26T16:02:39.740 ,3,1,0.,12.0,0.,12.0,0.,12.0,0.,12.0
1989-08-26T16:02:51.740 ,3,0,0.,12.0,0.,12.0,0.,12.0,0.,12.0
1989-08-26T16:03:03.740 ,3,0,0.,12.0,0.,12.0,0.,12.0,0.,12.0
1989-08-26T16:03:15.740 ,2,1,0.,12.0,0.,12.0,0.,12.0,0.,12.0
1989-08-26T16:03:27.740 ,2,1,0.,12.0,0.,12.0,0.,12.0,0.,12.0
1989-08-26T16:03:39.740 ,2,0,0.,12.0,0.,12.0,0.,12.0,0.,12.0
1989-08-26T16:03:51.740 ,2,0,0.,12.0,0.,12.0,0.,12.0,0.,12.0
1989-08-26T16:04:03.740 ,1,1,0.,12.0,0.,12.0,0.,12.0,0.,12.0
1989-08-26T16:04:15.740 ,1,1,0.,12.0,0.,12.0,0.,12.0,0.,12.0
1989-08-26T16:04:27.740 ,1,0,0.,12.0,0.,12.0,0.,12.0,0.,12.0
1989-08-26T16:04:39.740 ,1,0,0.,12.0,0.,12.0,0.,12.0,0.,12.0
1989-08-26T16:04:51.740 ,0,1,0.,12.0,0.,12.0,0.,12.0,0.,12.0
1989-08-26T16:05:03.740 ,0,1,0.,12.0,0.,12.0,0.,12.0,0.,12.0
1989-08-26T16:05:15.740 ,0,0,0.,12.0,0.,12.0,0.,12.0,0.,12.0
1989-08-26T16:05:27.740 ,0,0,0.,12.0,0.,12.0,0.,12.0,0.,12.0
1989-08-26T16:05:39.740 ,0,1,0.,12.0,0.,12.0,0.,12.0,0.,12.0
1989-08-26T16:05:51.740 ,0,1,0.,12.0,0.,12.0,0.,12.0,0.,12.0
1989-08-26T16:06:03.740 ,0,0,0.,12.0,0.,12.0,0.,12.0,0.,12.0
1989-08-26T16:06:15.740 ,0,0,0.,12.0,0.,12.0,0.,12.0,0.,12.0
1989-08-26T16:06:27.740 ,1,1,0.,12.0,0.,12.0,0.,12.0,0.,12.0
1989-08-26T16:06:39.740 ,1,1,0.,12.0,0.,12.0,0.,12.0,0.,12.0
1989-08-26T16:06:51.740 ,1,0,0.,12.0,0.,12.0,0.,12.0,0.,12.0
1989-08-26T16:07:03.740 ,1,0,0.,12.0,0.,12.0,0.,12.0,0.,12.0
1989-08-26T16:07:15.740 ,2,1,0.,12.0,0.,12.0,0.,12.0,0.,12.0
1989-08-26T16:07:27.740 ,2,1,0.,12.0,0.,12.0,0.,12.0,0.,12.0
1989-08-26T16:07:39.740 ,2,0,0.,12.0,0.,12.0,0.,12.0,0.,12.0
1989-08-26T16:07:51.740 ,2,0,0.,12.0,0.,12.0,0.,12.0,0.,12.0
1989-08-26T16:08:03.740 ,3,1,0.,12.0,0.,12.0,0.,12.0,0.,12.0
1989-08-26T16:08:15.740 ,3,1,0.,12.0,0.,12.0,0.,12.0,0.,12.0
1989-08-26T16:08:27.740 ,3,0,0.,12.0,0.,12.0,0.,12.0,0.,12.0
1989-08-26T16:08:39.740 ,3,0,0.,12.0,0.,12.0,0.,12.0,0.,12.0
1989-08-26T16:08:51.740 ,4,1,0.,12.0,0.,12.0,0.,12.0,0.,12.0
1989-08-26T16:09:03.740 ,4,1,0.,12.0,0.,12.0,0.,12.0,0.,12.0
1989-08-26T16:09:15.740 ,4,0,0.,12.0,0.,12.0,0.,12.0,0.,12.0
1989-08-26T16:09:27.740 ,4,0,0.,12.0,0.,12.0,0.,12.0,0.,12.0
1989-08-26T16:09:39.740 ,5,1,0.,12.0,0.,12.0,0.,12.0,0.,12.0
1989-08-26T16:09:51.740 ,5,1,0.,12.0,0.,12.0,0.,12.0,0.,12.0
1989-08-26T16:10:03.740 ,5,0,0.,12.0,0.,12.0,0.,12.0,0.,12.0
1989-08-26T16:10:15.740 ,5,0,0.,12.0,0.,12.0,0.,12.0,0.,12.0
1989-08-26T16:10:27.740 ,6,1,0.,12.0,0.,12.0,0.,12.0,0.,12.0
1989-08-26T16:10:39.740 ,6,1,0.,12.0,0.,12.0,0.,12.0,0.,12.0
1989-08-26T16:10:51.740 ,6,0,0.,12.0,0.,12.0,0.,12.0,0.,12.0
1989-08-26T16:11:03.740 ,6,0,0.,12.0,0.,12.0,0.,12.0,0.,12.0
1989-08-26T16:11:15.740 ,7,1,0.,12.0,0.,12.0,0.,12.0,0.,12.0
1989-08-26T16:11:27.740 ,7,1,0.,12.0,0.,12.0,0.,12.0,0.,12.0
1989-08-26T16:11:39.740 ,7,0,0.,12.0,0.,12.0,0.,12.0,0.,12.0
1989-08-26T16:11:51.740 ,7,0,0.,12.0,0.,12.0,0.,12.0,0.,12.0
1989-08-26T16:12:03.740 ,7,1,0.,12.0,0.,12.0,0.,12.0,0.,12.0
1989-08-26T16:12:15.740 ,7,1,0.,12.0,0.,12.0,0.,12.0,0.,12.0
1989-08-26T16:12:27.740 ,7,0,0.,12.0,0.,12.0,0.,12.0,0.,12.0
1989-08-26T16:12:39.740 ,7,0,0.,12.0,0.,12.0,0.,12.0,0.,12.0
1989-08-26T16:12:51.740 ,6,1,0.,12.0,0.,12.0,0.,12.0,0.,12.0
1989-08-26T16:13:03.740 ,6,1,0.,12.0,0.,12.0,0.,12.0,0.,12.0
1989-08-26T16:13:15.740 ,6,0,0.,12.0,0.,12.0,0.,12.0,0.,12.0
1989-08-26T16:13:27.740 ,6,0,0.,12.0,0.,12.0,0.,12.0,0.,12.0
1989-08-26T16:13:39.740 ,5,1,0.,12.0,0.,12.0,0.,12.0,0.,12.0
1989-08-26T16:13:51.740 ,5,1,0.,12.0,0.,12.0,0.,12.0,0.,12.0
1989-08-26T16:14:03.740 ,5,0,0.,12.0,0.,12.0,0.,12.0,0.,12.0
1989-08-26T16:14:15.740 ,5,0,0.,12.0,0.,12.0,0.,12.0,0.,12.0
1989-08-26T16:14:27.740 ,4,1,0.,12.0,0.,12.0,0.,12.0,0.,12.0
1989-08-26T16:14:39.740 ,4,1,0.,12.0,0.,12.0,0.,12.0,0.,12.0
1989-08-26T16:14:51.740 ,4,0,0.,12.0,0.,12.0,0.,12.0,0.,12.0
1989-08-26T16:15:03.740 ,4,0,0.,12.0,0.,12.0,0.,12.0,0.,12.0
1989-08-26T16:15:15.740 ,3,1,0.,12.0,0.,12.0,0.,12.0,0.,12.0
1989-08-26T16:15:27.740 ,3,1,0.,12.0,0.,12.0,0.,12.0,0.,12.0
1989-08-26T16:15:39.740 ,3,0,0.,12.0,0.,12.0,0.,12.0,0.,12.0
1989-08-26T16:15:51.740 ,3,0,0.,12.0,0.,12.0,0.,12.0,0.,12.0
1989-08-26T16:16:03.740 ,2,1,0.,12.0,0.,12.0,0.,12.0,0.,12.0
1989-08-26T16:16:15.740 ,2,1,0.,12.0,0.,12.0,0.,12.0,0.,12.0
1989-08-26T16:16:27.740 ,2,0,0.,12.0,0.,12.0,0.,12.0,0.,12.0
1989-08-26T16:16:39.740 ,2,0,0.,12.0,0.,12.0,0.,12.0,0.,12.0
1989-08-26T16:16:51.740 ,1,1,0.,12.0,0.,12.0,0.,12.0,0.,12.0
1989-08-26T16:17:03.740 ,1,1,0.,12.0,0.,12.0,0.,12.0,0.,12.0
1989-08-26T16:17:15.740 ,1,0,0.,12.0,0.,12.0,0.,12.0,0.,12.0
1989-08-26T16:17:27.740 ,1,0,0.,12.0,0.,12.0,0.,12.0,0.,12.0
1989-08-26T16:17:39.740 ,0,1,0.,12.0,0.,12.0,0.,12.0,0.,12.0